Wind_Speed
18 18 19 19 19 18 18 17 17 17 17 17 18 20 21 22 23 23 24 25 26 27 28 29 30 32 33 34 35 36 37 38 39 40 42 43 44 45 46 47 48 49 50 51 52 52 52 51 51 52 52 53 53 53 53 52 50 49 48 47 48 48 49 49 50 50 50 50 49 49 48 47 47 46 46 46 46 45 45 44 44 43 43 43 42 42
19 19 19 19 19 18 18 18 18 17 17 18 19 20 21 22 23 24 25 26 27 28 29 30 32 33 34 35 36 37 38 39 40 42 43 44 45 46 47 48 49 50 52 53 53 53 53 52 52 52 52 52 52 51 50 48 47 46 46 46 47 48 48 49 49 49 48 48 47 47 46 46 46 45 45 45 45 44 44 43 43 42 42 42 41 41
19 19 19 19 19 19 19 19 18 18 19 19 19 20 21 22 23 25 26 27 28 29 31 32 33 34 35 36 37 38 40 41 42 43 44 45 46 47 48 49 50 52 54 55 55 54 53 52 51 51 51 50 49 48 46 45 45 45 46 46 47 48 48 48 48 47 47 46 46 45 45 45 45 44 44 44 44 43 43 42 42 42 41 41 40 40
19 19 19 19 19 19 19 19 19 20 20 20 21 21 22 23 24 25 27 28 29 31 32 33 34 35 36 37 38 40 41 42 43 44 45 46 47 48 49 51 52 54 55 55 55 54 52 51 50 50 49 48 46 45 45 44 45 45 46 47 47 47 47 47 46 46 45 45 45 44 44 44 44 43 43 43 43 42 42 42 41 41 41 40 40 39
19 19 20 20 20 20 19 20 21 21 22 22 22 22 23 24 25 26 28 29 30 32 33 34 35 36 37 38 40 41 42 43 44 45 46 47 48 49 50 52 53 54 55 54 53 52 51 50 49 47 46 45 44 44 44 45 45 46 46 46 46 46 46 45 45 45 44 44 44 43 43 43 43 43 43 42 42 42 41 41 41 40 40 39 39 38
20 20 20 20 20 20 21 21 22 22 23 23 23 23 24 25 27 28 29 30 32 33 34 35 36 38 39 40 41 42 43 44 45 46 47 48 49 50 51 52 53 53 53 52 51 50 49 47 46 45 45 44 44 44 45 45 46 46 46 46 45 45 45 44 44 44 43 43 43 43 43 43 42 42 42 42 41 41 41 40 40 39 39 38 38 37
20 20 20 21 21 21 22 23 23 23 23 24 24 25 26 27 28 29 30 32 33 34 35 37 38 39 40 41 42 42 43 44 45 46 47 48 49 50 51 51 52 52 51 50 49 48 46 45 45 44 44 44 45 45 46 46 46 46 46 45 45 44 44 44 43 43 43 43 43 43 42 42 42 42 41 41 40 40 40 39 39 38 38 37 37 36
21 21 21 22 22 23 23 23 23 24 24 25 25 26 27 28 29 31 32 33 35 36 36 38 39 40 41 42 42 43 44 45 46 46 47 48 49 49 50 50 50 49 48 47 46 45 44 44 44 44 45 45 46 46 46 46 46 46 45 45 44 44 44 44 43 43 43 43 42 42 42 41 41 41 40 40 39 39 39 38 38 37 37 36 36 36
22 22 22 23 24 24 24 24 24 25 25 26 26 27 28 29 30 32 33 35 36 36 37 38 39 40 41 42 43 44 44 45 46 46 47 48 49 49 49 49 48 46 45 44 43 43 43 43 44 44 45 46 46 46 46 46 46 46 45 45 45 44 44 44 43 43 43 42 42 42 41 41 40 40 40 39 39 38 38 38 37 37 36 36 36 36
22 23 23 24 25 25 24 25 25 26 26 27 27 28 29 30 32 33 34 35 36 37 38 38 39 40 41 42 43 44 45 45 46 46 47 48 49 48 48 46 44 43 42 41 41 41 42 43 44 45 45 46 46 46 46 46 46 45 45 45 44 44 44 43 43 43 42 42 41 41 41 40 40 40 39 39 39 38 38 38 37 37 37 36 36 36
23 24 24 25 25 25 25 26 26 27 27 28 29 30 31 32 33 34 35 36 37 37 38 39 40 41 42 43 44 44 44 45 46 47 48 48 47 46 44 42 41 40 39 40 40 41 42 43 44 45 45 45 46 46 45 45 45 45 45 44 44 44 43 43 43 42 42 41 41 41 41 40 40 40 39 39 39 39 38 38 38 38 37 37 37 37
23 24 25 25 26 26 26 26 27 27 28 29 30 31 32 34 35 36 36 36 37 38 39 40 41 42 43 43 44 45 45 45 46 46 46 46 44 42 40 39 38 38 39 39 40 41 42 43 44 44 44 45 45 45 45 45 45 44 44 44 44 43 43 43 42 42 42 41 41 41 41 41 40 40 40 40 40 39 39 39 38 38 38 38 37 37
24 25 26 26 26 26 26 27 27 28 29 30 31 32 33 35 36 36 37 37 38 39 40 41 42 43 44 44 45 45 45 45 45 44 43 42 40 38 37 36 37 37 38 39 40 41 42 43 43 43 44 44 44 44 44 44 44 44 44 44 43 43 43 42 42 42 42 42 41 41 41 41 41 41 40 40 40 39 39 39 38 38 38 37 37 36
25 26 26 26 26 27 27 27 27 28 29 30 32 33 34 35 36 36 37 37 39 40 41 42 43 44 45 46 46 45 44 43 42 40 39 38 36 35 35 36 36 37 38 39 40 41 41 42 42 43 43 43 43 44 44 44 44 44 44 44 43 43 43 43 42 42 42 42 42 42 41 41 41 40 40 40 40 39 39 38 38 37 37 36 36 35
26 26 27 27 27 27 27 27 28 29 30 31 33 34 34 35 35 36 37 38 40 41 42 43 44 45 46 46 46 45 43 40 37 36 35 35 34 34 34 36 36 37 38 38 39 40 41 41 41 42 42 43 43 43 43 44 44 44 44 44 43 43 43 43 42 42 42 42 42 41 41 41 40 40 39 39 38 38 38 37 37 36 35 35 34 33
26 26 27 27 27 27 27 28 29 29 31 32 33 34 34 34 35 36 37 39 41 42 43 44 45 46 47 47 45 42 39 36 34 32 32 33 34 34 35 36 36 37 37 38 38 39 40 40 41 41 42 42 43 43 43 43 44 44 44 43 43 43 43 43 42 42 42 42 41 41 40 40 39 39 38 38 37 37 36 36 35 35 34 33 32 32
26 27 27 27 27 27 27 28 29 30 31 32 33 33 33 34 35 37 39 41 42 44 45 45 45 45 46 45 43 39 36 33 31 31 31 32 34 35 35 35 36 36 37 37 38 38 39 40 41 41 42 42 43 43 43 43 43 43 43 43 43 43 43 42 42 42 41 41 41 40 39 39 38 37 37 36 36 35 35 34 34 33 32 32 31 30
26 27 27 27 27 27 28 29 30 31 31 32 32 33 33 35 36 39 41 43 44 45 46 46 46 44 42 39 37 35 33 31 30 31 31 33 34 35 35 35 35 36 36 37 38 38 39 40 40 41 41 42 42 43 43 43 43 43 43 43 43 43 42 42 42 41 41 40 40 39 38 37 37 36 36 35 35 34 34 33 33 32 31 31 30 29
27 27 27 26 27 27 28 29 30 30 31 31 32 32 34 36 38 41 42 44 45 46 46 45 44 41 37 34 32 32 30 30 30 31 31 33 33 34 34 34 35 36 36 37 38 39 39 40 40 41 41 42 42 42 43 43 43 43 43 43 42 42 42 41 41 41 40 39 39 38 37 36 36 35 35 34 34 33 33 32 32 31 30 30 28 27
27 27 27 27 27 27 28 29 29 30 30 31 32 33 35 38 40 42 44 45 46 46 45 43 40 36 32 30 29 29 30 30 30 31 31 32 33 33 34 34 35 35 36 37 38 39 39 40 40 41 41 41 42 42 42 42 42 42 42 42 42 41 41 40 40 39 39 38 37 37 36 35 34 34 33 33 33 32 32 31 31 30 30 29 27 26
27 26 26 26 27 27 27 28 29 30 31 32 33 35 37 39 41 43 44 45 45 44 43 39 34 31 29 27 28 28 29 30 30 30 31 31 32 32 33 34 35 35 36 37 38 39 39 39 40 41 41 41 42 42 42 42 41 41 41 41 40 40 39 39 38 37 37 36 36 35 34 34 33 33 32 32 31 31 31 31 30 29 28 27 26 24
26 25 25 26 26 26 27 28 29 30 32 33 34 36 38 40 42 43 43 44 43 41 37 33 30 27 26 26 27 28 29 29 29 29 30 31 31 32 33 34 35 35 36 37 38 39 39 39 40 40 41 41 41 41 41 41 40 40 40 39 39 38 37 36 36 35 35 34 34 33 32 32 31 31 31 31 30 30 30 29 29 28 27 25 24 23
25 24 24 25 25 26 27 29 30 32 33 35 36 38 40 41 41 42 42 41 39 36 32 28 26 25 25 26 26 27 28 28 29 29 29 30 31 32 34 34 35 35 36 37 38 39 39 39 40 40 40 41 40 40 40 39 39 38 38 37 36 36 35 34 34 33 33 32 32 31 31 30 30 30 30 30 29 29 29 28 27 26 25 23 22 21
24 23 23 24 25 27 29 30 31 33 34 36 38 39 41 41 41 40 40 39 35 31 27 25 25 25 25 25 25 26 27 28 28 29 30 30 31 33 34 34 35 35 36 37 37 38 39 40 40 40 40 40 39 39 38 38 37 36 36 35 34 34 33 33 32 31 31 30 30 29 29 29 29 29 29 29 28 28 27 26 25 24 22 21 20 20
23 23 24 25 27 29 30 31 32 34 36 37 39 40 39 39 39 39 39 35 30 25 23 23 24 24 24 24 24 25 26 27 28 29 30 31 32 33 34 34 35 35 36 37 38 38 39 40 40 39 39 39 38 38 37 36 35 34 34 33 33 32 31 31 30 30 29 29 28 28 28 27 27 28 28 27 27 26 25 24 23 21 20 20 19 19
22 23 25 27 29 30 31 32 33 35 37 38 38 38 37 38 38 37 34 29 25 22 22 22 23 23 23 23 23 24 26 27 28 29 31 32 32 33 34 34 35 36 37 37 38 38 39 39 39 38 38 37 37 36 36 35 34 33 32 32 31 30 30 29 28 28 27 27 27 26 26 26 26 26 26 26 25 25 23 22 21 20 19 18 18 18
22 24 26 28 30 31 32 33 35 36 37 37 36 36 36 36 35 32 28 24 22 21 21 21 21 21 22 22 23 24 26 27 29 30 31 31 32 33 34 35 35 36 37 38 38 38 38 39 39 38 37 36 36 35 34 33 32 32 31 30 29 29 28 27 27 26 26 26 25 25 25 25 25 25 25 25 24 23 22 21 20 19 18 18 17 17
24 26 28 29 31 31 33 34 35 36 36 35 34 34 35 34 31 26 23 21 20 19 19 19 19 20 21 22 23 24 26 27 28 30 30 31 32 33 34 35 36 36 37 38 38 37 37 37 38 38 37 36 35 33 32 32 31 30 29 28 27 27 26 25 25 25 24 24 25 25 25 25 25 25 24 24 23 22 21 19 18 17 17 16 16 15
26 28 29 30 31 32 33 34 35 35 34 33 33 33 33 31 26 21 19 18 18 17 18 18 18 19 20 22 23 24 25 27 28 29 30 31 32 33 34 35 36 36 37 37 37 37 36 36 36 36 36 35 34 32 31 30 29 28 27 26 25 25 24 24 23 23 23 24 24 24 25 24 24 24 23 23 22 21 19 18 17 16 16 15 14 13
27 29 30 30 31 32 33 33 33 33 33 33 33 32 30 25 20 17 17 16 16 16 16 17 18 19 21 22 23 24 25 26 27 28 30 31 32 33 34 35 36 36 36 37 37 36 36 35 34 34 34 33 32 31 29 28 27 26 26 25 24 23 22 22 22 22 23 23 24 24 24 24 24 23 23 22 21 20 18 17 16 15 14 13 13 12
28 29 30 31 31 32 32 32 32 33 33 33 32 29 24 19 16 16 15 15 15 15 16 17 18 19 21 22 23 24 25 26 27 27 29 30 31 32 33 35 36 36 36 36 36 36 35 35 35 33 32 31 30 29 28 27 26 25 24 23 22 22 21 21 21 22 23 23 24 24 24 24 24 23 22 21 20 19 17 16 15 14 13 13 12 12
29 30 30 31 31 31 31 32 32 33 33 31 28 23 18 15 14 14 14 14 14 14 15 17 18 20 21 22 23 24 25 26 26 27 28 30 31 32 33 34 36 37 37 37 36 35 34 34 34 33 31 29 28 28 27 26 25 24 23 22 21 20 20 20 21 22 23 24 24 24 24 24 23 22 21 20 19 17 16 15 14 13 13 12 12 12
30 30 30 30 30 30 31 32 33 32 30 27 22 17 14 13 13 12 12 12 13 14 16 17 18 20 20 21 22 23 24 25 26 27 28 30 31 32 33 34 35 36 37 37 37 35 34 33 32 32 30 28 27 26 26 25 24 23 22 21 20 20 20 20 21 22 23 24 24 24 24 23 23 22 21 19 18 16 15 14 14 13 13 12 12 13
30 30 29 29 29 30 31 32 31 29 25 21 16 13 12 11 11 11 11 12 13 14 16 17 18 19 20 21 21 22 23 24 25 26 28 29 31 32 33 34 35 36 36 36 36 35 34 32 31 30 29 28 27 25 24 24 24 23 22 21 20 20 20 20 21 22 23 24 24 24 24 23 22 21 20 18 17 15 14 14 13 13 13 12 13 14
29 28 28 28 29 30 31 31 28 24 19 15 12 11 10 9 9 9 10 12 13 15 16 17 17 18 19 20 21 22 23 24 25 26 27 29 31 32 33 34 34 35 35 35 34 33 32 31 29 28 28 27 27 25 24 23 22 22 22 21 20 20 20 21 22 23 24 24 24 24 23 22 21 20 18 17 16 15 14 14 13 13 12 13 13 14
27 27 27 28 30 31 30 27 22 18 14 11 10 9 8 8 8 9 10 12 13 14 16 16 17 18 18 19 21 22 23 24 25 26 27 28 30 31 33 33 34 34 34 34 33 32 31 30 28 27 26 26 26 25 24 23 22 21 21 20 20 20 20 21 22 23 23 24 24 23 22 21 20 18 17 16 15 14 14 13 13 12 12 13 14 15
26 27 28 30 30 29 25 20 16 12 10 9 8 7 7 7 8 9 10 12 13 14 15 16 16 17 18 19 20 21 23 24 25 26 27 28 29 31 32 33 33 33 33 32 32 31 30 29 28 27 26 25 24 23 23 23 22 21 20 20 20 21 21 22 22 23 23 23 23 22 21 20 19 17 16 15 14 14 14 13 13 12 12 13 14 15
27 29 30 30 27 23 18 14 11 9 7 6 6 6 6 7 8 9 10 11 12 13 14 15 16 17 18 19 19 20 22 23 24 25 26 27 29 30 31 32 32 32 32 31 31 30 29 28 27 27 26 25 24 22 21 21 20 20 20 20 21 21 21 22 22 22 23 23 22 22 21 19 18 16 15 14 14 14 14 13 13 12 12 13 14 15
30 31 30 26 21 17 13 9 7 6 5 5 5 5 5 6 8 9 10 11 12 13 13 14 15 16 17 18 19 20 21 22 23 25 26 27 28 29 30 31 31 31 31 30 30 29 29 28 27 26 26 25 24 22 21 20 19 19 20 20 21 21 21 22 22 22 22 22 22 21 20 18 16 15 14 13 13 14 13 13 12 12 12 13 14 15
31 30 25 21 16 12 9 6 4 4 4 4 4 4 5 6 7 8 9 10 11 12 13 14 15 16 17 18 19 20 21 22 23 24 25 26 28 28 29 30 30 30 30 30 29 29 28 27 27 26 25 24 23 22 20 20 19 19 19 20 20 21 22 22 22 22 22 21 21 20 18 17 15 14 13 13 13 13 13 12 12 12 13 14 14 15
30 26 21 16 12 8 5 3 2 2 3 3 3 4 5 6 7 8 9 10 11 12 13 14 15 16 16 17 18 19 21 22 23 24 25 26 27 28 28 29 29 29 29 29 28 28 27 27 27 26 25 24 23 21 20 19 19 19 19 20 20 21 22 22 22 22 22 21 20 19 17 16 14 13 12 12 12 12 12 12 12 12 13 14 15 15
26 21 16 12 8 4 2 1 1 2 3 3 3 4 5 6 7 8 9 10 11 11 12 13 14 15 16 17 18 19 20 21 22 23 25 26 26 27 27 28 28 28 28 28 28 27 26 26 25 25 25 24 23 21 20 19 19 19 19 19 20 21 21 22 22 21 21 20 19 18 16 15 13 12 11 11 12 12 12 12 13 13 13 14 15 15
21 16 12 8 5 2 1 1 2 3 3 3 3 4 5 6 7 8 8 9 10 11 11 12 13 14 15 16 17 18 19 20 22 23 24 25 26 26 27 27 27 27 27 27 27 26 26 25 24 24 23 23 22 20 19 19 18 19 19 19 20 20 21 21 21 21 20 19 18 16 15 14 13 11 11 11 12 12 13 13 13 13 14 14 14 15
16 12 9 5 2 1 1 2 3 3 3 3 3 4 5 6 6 7 8 9 9 10 10 11 12 12 13 15 16 17 19 20 21 22 23 24 24 25 26 26 26 26 25 25 25 25 26 25 24 23 22 21 20 19 19 18 18 18 19 19 20 21 21 21 21 20 19 18 17 15 14 13 12 11 11 11 12 13 13 13 13 13 14 14 14 14
12 9 6 3 2 2 3 4 4 4 3 3 3 4 5 5 6 7 8 8 9 9 9 10 11 12 13 14 15 16 18 19 20 21 22 23 23 24 24 25 25 25 24 24 24 24 24 24 24 23 22 20 19 18 18 18 18 18 18 19 20 20 21 21 20 19 18 17 16 15 14 13 12 11 10 11 12 13 13 13 13 13 13 14 14 14
10 7 4 3 4 5 6 5 5 4 3 3 3 4 5 5 6 7 8 8 9 9 9 10 11 12 13 14 15 16 17 18 19 20 21 22 23 23 24 24 24 24 23 23 23 23 23 23 23 22 21 20 18 18 17 17 17 18 18 19 19 20 20 20 19 18 17 16 15 14 14 13 11 10 10 10 12 12 13 13 13 12 13 13 13 13
7 5 4 4 5 6 6 5 4 3 3 3 3 4 5 5 6 7 7 8 8 9 9 10 11 12 13 14 15 16 17 18 19 20 21 22 22 23 23 23 23 23 23 23 23 22 22 22 22 21 20 19 18 18 17 17 17 17 17 18 19 19 20 19 18 17 16 15 14 14 13 13 11 10 10 11 12 13 13 12 12 12 13 13 13 13
6 6 6 7 7 7 6 5 4 3 3 3 3 4 5 5 6 7 7 8 8 9 9 10 11 12 13 14 15 16 17 18 19 20 20 21 22 23 23 23 23 23 22 22 22 21 21 21 20 20 19 18 17 17 17 17 17 17 17 17 18 19 19 19 18 17 15 15 14 14 13 12 11 10 10 11 12 13 12 12 12 12 13 13 13 13
7 7 7 7 7 7 6 5 4 3 2 3 3 4 5 5 6 7 7 7 8 8 9 10 11 12 12 14 14 15 16 17 18 19 20 21 21 22 23 23 23 23 23 22 21 21 20 19 18 18 18 17 17 16 16 16 16 16 16 17 18 19 19 18 17 16 15 14 14 13 13 12 11 10 10 11 12 12 12 12 12 12 13 13 13 13
8 8 8 7 7 6 5 4 3 3 2 3 3 4 5 5 6 7 7 7 8 8 9 10 11 12 12 13 14 15 16 17 18 18 19 20 20 21 22 22 23 23 23 22 21 20 19 17 16 15 15 15 15 16 16 16 16 16 16 17 18 19 19 18 17 16 15 14 14 13 13 12 11 11 11 11 12 12 12 12 12 12 13 13 13 13
9 8 8 7 7 6 5 4 3 3 3 3 4 4 5 6 6 7 7 7 8 8 8 9 10 11 12 13 14 14 15 16 17 18 18 19 19 20 20 21 22 22 22 21 20 19 18 16 15 14 13 13 14 15 16 16 16 16 16 17 18 19 19 18 17 16 15 15 14 14 13 12 11 11 11 12 12 12 12 12 12 12 13 13 13 13
Wind_Direction
257 259 261 263 266 269 271 272 273 275 277 280 284 287 290 293 296 298 300 302 303 305 305 306 307 307 308 308 308 308 308 307 306 306 305 305 304 304 304 305 305 306 306 305 305 304 305 306 307 309 309 309 309 308 307 307 307 307 307 307 306 306 306 306 307 307 307 307 307 307 307 306 306 305 305 304 304 304 304 304 305 305 305 304 304 304
257 258 261 264 267 269 271 272 273 276 279 282 284 287 290 293 296 299 301 303 304 305 306 307 307 308 308 308 308 308 308 307 306 306 305 305 304 304 305 305 306 306 306 305 304 304 305 307 308 309 310 309 309 309 309 309 309 309 308 308 307 307 307 307 307 308 308 308 308 307 307 306 306 305 305 305 305 305 305 305 305 305 305 305 305 305
257 259 261 264 266 268 270 273 275 277 280 282 284 287 290 294 296 299 301 303 305 306 307 307 307 308 308 308 308 308 308 307 306 306 306 305 305 306 306 307 307 307 306 306 305 306 307 308 309 310 310 309 310 310 310 311 311 310 309 309 308 308 308 308 308 308 308 308 308 307 307 306 306 305 305 305 305 306 306 306 306 306 306 306 306 305
256 259 262 264 265 268 271 274 276 278 280 282 284 287 290 293 296 299 301 303 305 306 307 307 307 308 308 308 308 308 307 307 307 307 307 307 307 308 308 309 309 309 308 307 307 308 308 309 310 310 310 310 311 312 312 312 311 311 310 309 309 309 309 309 309 309 309 308 308 307 307 306 306 306 306 306 306 307 307 307 307 307 306 306 306 306
254 258 261 263 265 268 271 274 276 277 279 282 285 288 291 294 297 299 301 303 305 306 307 307 307 307 307 307 307 307 308 308 308 308 309 309 310 310 311 311 311 310 309 309 309 309 309 310 310 311 311 312 313 313 313 312 311 311 310 310 310 310 310 310 310 310 309 309 308 308 308 307 307 307 307 307 308 308 308 308 308 307 307 307 306 306
253 256 259 262 265 268 271 272 274 277 280 284 287 290 292 295 297 300 302 304 305 306 307 307 307 307 307 307 308 308 308 309 310 311 311 312 312 312 312 312 311 311 310 310 310 310 310 311 311 312 313 314 314 313 313 312 311 311 311 311 311 311 311 311 311 310 310 310 310 309 309 309 309 309 309 309 309 309 309 309 309 308 308 307 307 306
251 254 258 262 265 267 269 271 274 278 281 285 288 290 293 296 299 301 303 305 306 307 307 307 307 307 307 308 308 309 310 311 312 313 313 314 314 313 313 312 311 311 311 310 311 311 312 312 313 314 314 314 314 313 313 312 312 312 312 312 312 312 312 312 312 312 312 311 311 311 311 311 311 311 311 311 311 310 310 310 310 309 308 308 307 307
250 253 256 260 262 265 268 271 275 278 282 285 288 290 294 297 300 302 304 306 307 307 307 307 307 307 308 309 310 311 312 313 314 314 315 314 314 313 312 312 312 311 311 311 312 313 313 314 315 315 315 314 314 313 313 313 313 313 314 314 314 314 314 314 314 314 314 314 313 313 313 313 313 313 313 312 312 312 311 311 310 310 309 309 308 308
248 251 254 256 260 264 268 272 276 279 282 285 288 291 294 297 300 303 305 306 307 307 307 307 307 308 309 310 311 312 313 314 314 315 315 314 313 312 312 312 312 312 312 313 314 314 315 315 315 315 315 314 314 314 314 314 315 315 316 316 316 316 316 316 316 316 316 315 315 315 315 315 315 314 314 314 313 313 312 312 311 310 310 309 309 308
247 250 253 255 259 263 269 273 276 280 283 286 289 292 295 298 301 303 305 306 306 306 306 306 307 308 310 311 312 313 313 314 314 314 314 313 312 312 313 313 313 314 314 315 315 316 316 316 315 315 314 314 315 315 316 316 316 317 317 317 318 318 318 318 318 317 317 317 317 316 316 316 316 316 315 315 314 314 313 312 312 311 310 310 309 308
248 250 253 257 260 264 269 273 277 280 284 287 290 294 297 299 302 303 304 305 305 306 306 307 308 310 311 312 312 313 313 313 313 313 313 312 313 313 314 314 315 315 316 316 316 316 316 315 315 315 315 316 316 317 317 317 318 318 318 318 319 319 319 319 318 318 318 318 318 318 317 317 317 317 316 315 315 314 313 312 312 311 310 310 309 308
249 252 255 259 263 267 270 274 278 282 285 289 292 296 298 300 302 304 305 305 306 307 307 309 309 310 311 312 312 313 313 313 312 312 312 312 313 315 316 316 316 317 317 317 317 316 316 315 315 316 317 317 318 318 318 318 318 319 319 319 319 319 319 319 319 319 319 319 319 318 318 318 318 317 316 315 315 314 313 313 312 311 310 310 309 308
250 254 257 261 265 269 273 277 280 284 287 291 294 297 300 301 303 304 305 306 307 308 309 310 310 311 311 312 312 312 312 312 312 312 312 313 315 316 317 317 317 317 317 317 317 316 316 316 317 318 318 319 319 319 319 319 319 319 320 320 320 320 320 320 320 320 320 320 319 319 319 318 318 317 316 315 315 314 313 313 312 311 310 310 309 309
252 256 260 264 268 272 276 279 283 286 289 292 295 298 300 302 304 305 306 307 308 309 309 310 310 311 311 311 311 312 312 312 312 313 314 315 316 317 318 317 317 317 318 318 317 317 318 318 319 319 320 319 319 319 319 319 320 320 320 320 320 321 321 321 321 321 321 320 320 320 319 319 318 317 316 315 315 314 314 313 312 311 311 310 310 309
255 259 263 267 271 275 278 282 285 288 291 293 296 299 301 303 304 306 307 308 308 308 308 309 309 310 311 311 311 311 311 312 313 315 316 317 318 318 319 318 318 318 319 319 319 319 320 320 320 320 320 320 320 320 320 320 320 321 321 321 321 321 322 322 322 321 321 321 320 320 319 318 318 317 316 316 315 315 314 313 313 312 311 311 311 311
258 262 266 270 274 278 281 284 287 290 292 295 298 300 302 304 305 306 306 307 307 307 308 309 310 310 311 311 311 311 312 314 316 318 319 319 319 319 320 319 320 320 321 321 321 321 321 321 321 321 321 320 320 320 321 321 321 322 322 322 322 322 322 322 322 322 321 321 320 320 319 318 318 317 317 316 316 315 315 314 313 313 313 312 312 312
262 266 270 274 277 280 283 286 289 292 295 297 299 301 303 304 305 305 305 305 306 307 308 309 310 311 310 311 311 312 313 316 318 320 321 320 320 320 321 321 322 322 323 323 323 323 322 322 322 322 321 321 321 321 322 322 322 323 323 323 323 323 323 322 322 322 321 321 320 320 319 319 319 318 318 317 317 316 316 315 315 314 314 314 314 314
265 269 273 277 281 283 285 288 291 294 296 298 300 302 303 303 304 304 304 305 306 308 310 311 311 311 311 311 312 313 315 318 321 322 322 321 321 322 323 324 324 325 325 324 324 324 323 323 323 323 322 322 322 322 323 323 323 323 323 323 323 323 323 322 322 321 321 320 320 320 320 320 319 319 319 318 317 317 317 316 316 316 316 316 316 315
268 271 276 280 283 285 287 290 293 295 297 299 300 301 302 303 303 304 305 306 309 311 312 312 312 311 312 313 314 316 319 321 323 323 323 323 323 324 326 326 326 326 326 325 325 325 324 324 324 324 323 323 323 324 324 324 324 324 323 323 323 322 322 322 322 321 321 321 321 321 321 321 321 320 319 319 318 318 318 317 317 317 317 317 317 317
270 273 277 281 284 287 289 292 294 296 298 299 299 300 302 302 303 305 307 309 312 313 313 312 311 311 313 315 318 319 322 324 324 324 325 325 325 327 328 328 328 327 327 326 326 326 325 325 325 325 324 324 325 325 325 325 324 324 323 323 322 322 322 322 322 321 321 322 322 322 322 322 321 321 320 319 319 319 318 318 318 318 318 318 318 319
272 276 279 283 286 289 291 293 295 296 297 297 299 300 301 303 305 307 310 312 313 313 312 311 311 313 316 319 321 323 324 325 326 326 327 327 328 329 329 329 328 328 327 327 327 326 326 326 326 325 325 325 325 325 325 325 324 323 323 323 323 323 323 323 323 323 323 323 324 324 323 323 322 322 321 320 320 320 319 319 319 319 319 319 320 322
275 278 281 285 288 291 292 293 294 294 296 297 299 301 303 305 307 310 312 313 313 311 310 310 312 315 320 323 324 325 326 327 327 328 329 329 329 329 330 329 329 328 328 328 327 327 327 327 327 326 326 326 326 326 325 325 324 324 324 324 324 325 325 325 325 325 326 326 326 325 325 324 324 323 322 322 322 321 321 321 320 320 320 321 323 325
277 281 283 286 289 290 291 292 293 294 296 298 301 303 305 308 310 312 313 312 310 309 308 310 315 320 324 327 327 327 328 328 328 329 330 331 330 330 330 330 330 329 329 329 328 328 328 328 327 327 327 327 327 326 326 326 325 326 326 327 327 327 328 328 328 328 328 328 328 327 327 326 326 325 325 325 324 323 323 322 322 322 323 325 327 328
279 282 285 287 289 289 290 291 293 295 298 300 303 305 308 310 312 312 311 310 308 308 311 316 322 325 328 329 328 328 328 329 329 330 331 331 331 331 331 330 330 330 330 330 330 329 329 328 328 328 328 328 328 328 328 328 328 329 329 330 331 331 331 331 331 331 330 330 329 329 329 329 328 328 328 327 327 326 326 325 325 326 327 329 331 331
281 284 286 287 288 289 290 292 295 297 300 303 306 308 310 312 312 311 309 307 307 310 316 323 326 328 328 329 329 329 329 330 331 332 332 332 331 331 331 331 331 332 331 331 331 331 330 329 329 329 330 330 330 330 331 331 332 333 333 334 334 334 333 333 333 332 332 332 332 332 332 332 332 332 331 331 330 329 329 329 329 330 332 334 335 335
283 286 287 287 288 289 291 294 297 300 303 305 308 310 311 311 309 306 304 304 308 315 322 326 327 327 329 330 331 331 331 332 332 333 333 332 332 332 332 333 334 333 333 332 332 332 331 330 330 331 332 333 333 334 335 335 336 336 337 336 336 335 335 334 334 334 334 334 335 336 337 337 336 336 335 334 333 333 332 333 334 335 336 338 338 339
285 286 287 287 289 291 294 297 300 303 305 308 310 310 309 306 303 301 302 306 314 321 326 328 328 328 330 332 333 334 334 333 333 333 333 333 333 334 334 335 335 335 334 333 333 332 333 333 333 334 335 336 337 338 338 339 339 339 338 338 337 336 336 335 335 336 337 338 339 341 341 341 340 339 338 338 337 336 336 337 338 339 340 341 342 344
285 285 286 288 291 294 297 300 302 305 307 309 309 308 304 301 300 301 305 313 321 326 328 328 328 329 331 334 335 336 336 335 334 334 334 335 336 336 337 337 336 336 335 334 334 334 335 336 336 337 337 339 340 341 341 341 341 340 339 338 338 337 337 337 338 339 340 342 344 345 345 345 344 342 341 340 340 339 340 341 342 343 343 345 347 348
284 285 287 290 293 296 299 301 304 306 307 307 305 302 298 297 299 305 313 321 327 329 328 329 330 332 334 336 337 337 337 336 335 336 336 337 338 339 338 337 337 336 336 336 336 336 337 338 339 339 340 341 342 343 343 343 342 341 339 339 339 339 340 340 341 343 344 346 348 348 348 348 346 345 344 343 343 343 344 345 346 346 347 349 352 354
284 286 288 291 294 297 300 303 305 306 306 303 299 295 293 296 303 314 322 327 328 329 329 331 333 335 337 338 339 338 338 337 338 338 339 339 340 340 339 337 336 336 337 338 339 339 339 340 341 342 342 343 343 344 344 344 342 341 340 340 341 342 343 344 345 346 348 350 351 351 350 350 349 348 347 346 347 348 349 350 350 351 352 355 357 359
284 286 289 292 295 298 302 305 306 305 302 297 293 291 293 301 313 323 326 327 328 329 332 334 336 339 340 340 340 339 339 339 341 342 342 341 341 341 340 338 337 337 339 340 342 342 342 341 342 343 345 346 346 345 345 344 343 342 342 343 344 346 347 347 348 349 350 352 352 352 352 351 351 350 350 350 351 353 354 354 355 356 358 1 3 5
284 287 290 293 297 301 304 305 304 301 297 292 290 291 299 313 323 327 327 327 329 332 335 337 339 341 342 342 341 341 341 341 343 344 344 342 341 341 340 339 339 339 340 342 343 344 344 343 343 344 346 348 348 347 346 345 345 345 345 346 348 350 350 350 350 351 352 353 353 354 353 353 352 352 353 354 356 357 358 359 0 2 5 7 9 9
285 288 291 295 300 303 303 302 299 295 291 289 290 298 312 323 328 327 327 329 332 336 338 340 342 342 343 343 344 344 344 345 345 346 345 343 342 341 341 341 341 341 342 343 343 344 344 345 345 345 347 349 350 349 348 346 346 347 348 350 352 352 352 352 352 353 353 354 354 354 354 354 354 354 356 357 360 1 2 3 5 8 11 12 13 12
286 290 294 298 300 300 299 296 292 289 287 289 297 310 322 326 326 326 328 332 335 339 341 342 343 344 344 345 345 346 347 347 347 347 346 344 342 341 342 343 343 343 343 343 343 343 344 345 347 348 349 350 352 352 351 349 348 348 350 352 354 354 353 353 353 353 353 354 354 355 355 355 356 356 358 0 2 3 5 7 11 14 16 17 16 13
288 293 296 298 296 294 290 287 285 284 287 296 309 321 325 324 324 328 332 336 338 340 342 344 345 345 346 347 347 348 348 349 349 348 346 345 344 343 344 345 345 345 344 344 343 344 344 346 348 350 352 352 353 354 354 353 352 351 351 353 355 355 354 354 353 353 353 353 354 355 356 357 357 359 360 2 3 5 8 11 15 18 20 20 17 14
291 294 295 293 289 285 282 280 280 285 295 309 319 324 322 323 327 332 336 339 340 341 343 344 346 347 348 349 349 349 349 350 349 348 347 346 346 346 346 346 346 345 344 344 343 344 345 347 350 352 355 356 356 355 354 354 354 354 354 354 355 355 355 355 354 353 352 352 353 355 357 358 360 0 1 2 4 6 10 14 18 21 22 21 18 14
292 291 289 285 281 278 276 278 283 294 308 317 320 319 320 325 331 336 338 340 341 342 343 345 347 348 350 351 351 350 350 350 349 347 347 348 349 349 348 347 346 345 344 344 344 344 346 349 352 354 357 359 359 358 356 354 353 354 355 355 356 356 355 354 353 352 352 352 353 355 358 1 2 2 2 2 4 7 12 16 20 23 23 21 18 15
289 285 282 278 276 274 275 281 293 306 316 316 314 315 321 329 334 336 338 339 341 342 345 347 349 350 351 351 350 350 350 350 349 348 348 349 351 351 350 348 347 346 345 344 344 345 347 350 353 356 358 360 1 1 359 355 353 353 354 356 357 356 355 354 352 352 351 352 354 356 360 3 4 4 3 3 4 8 13 17 21 24 24 22 19 16
283 280 277 274 272 274 279 290 304 314 314 309 309 315 324 330 333 335 336 338 341 343 346 349 350 351 351 351 350 349 349 349 349 349 350 351 353 353 351 349 347 346 345 346 346 347 349 351 354 356 358 360 1 1 359 357 355 355 356 357 357 356 354 353 353 352 352 353 355 358 2 6 7 7 5 5 6 10 14 19 23 25 25 23 19 17
279 276 273 271 273 278 288 301 311 312 305 301 304 314 324 329 332 334 336 338 341 345 348 350 350 351 351 350 350 349 349 349 350 351 352 353 354 353 352 350 348 347 347 347 348 349 350 352 354 357 359 0 1 1 359 357 356 357 357 357 356 355 354 354 353 353 353 354 356 0 5 9 10 9 7 6 8 12 16 22 26 27 27 24 21 19
276 273 270 271 275 283 295 308 311 299 287 288 300 313 322 327 331 335 337 340 344 347 350 350 350 349 350 351 350 349 349 349 351 353 355 355 355 354 352 351 350 348 348 348 349 350 351 353 355 357 359 0 1 1 0 359 359 359 359 359 357 356 355 354 355 355 355 356 359 3 9 13 14 12 10 8 9 14 20 26 29 30 28 25 23 21
271 268 267 269 275 283 295 306 286 265 265 279 296 312 320 326 331 335 338 341 344 347 349 350 348 347 347 348 349 349 349 351 352 355 356 356 355 354 353 352 351 350 350 350 350 350 352 354 356 357 359 360 0 1 0 360 0 1 1 1 359 357 356 356 356 357 357 358 1 7 13 18 18 16 12 11 12 17 24 30 33 32 30 27 24 22
266 264 264 265 267 268 262 235 236 243 253 270 292 308 318 325 329 334 337 340 342 344 346 347 347 346 345 345 345 347 350 352 354 355 356 356 355 354 353 352 352 351 351 351 350 350 352 354 357 359 360 360 360 0 1 1 1 3 3 3 1 1 1 0 359 359 359 1 5 11 18 22 23 20 15 13 15 19 26 32 35 34 32 28 26 25
262 260 259 254 239 191 183 210 223 233 245 266 291 307 317 323 327 332 335 337 339 342 344 345 346 346 346 345 344 346 350 354 355 356 356 355 355 354 353 353 353 352 353 353 352 352 352 354 357 359 1 1 1 0 0 1 3 4 5 5 4 4 5 4 2 2 3 5 9 16 23 27 28 24 19 16 18 22 28 33 35 35 32 30 28 27
258 254 246 224 183 174 194 210 219 226 242 266 292 307 316 321 325 330 333 334 337 339 341 343 344 345 345 346 347 349 351 354 355 356 355 355 355 355 354 354 354 354 354 355 355 355 355 355 356 358 0 2 2 2 1 2 3 6 7 7 7 7 6 5 5 5 7 9 15 21 28 32 32 28 24 20 21 24 29 33 35 35 33 31 30 30
249 239 220 188 174 186 200 208 214 223 241 269 293 308 315 320 324 328 330 331 333 336 339 341 342 343 344 346 349 352 354 355 355 355 356 356 356 356 356 356 356 356 356 357 357 358 358 357 356 357 359 1 3 3 3 4 6 7 9 9 9 8 8 8 8 9 11 15 20 26 33 36 36 33 28 24 24 27 31 35 36 35 34 33 33 33
234 219 196 181 185 193 200 203 209 220 243 274 295 307 313 318 322 325 327 329 331 333 336 338 340 341 343 347 350 352 354 355 356 356 356 357 357 357 357 357 358 359 359 360 360 360 359 359 357 357 358 0 2 3 5 7 10 11 12 11 10 9 10 10 11 12 15 20 26 31 37 40 40 36 30 25 26 30 33 35 36 36 36 36 36 36
217 201 188 186 190 194 197 200 207 221 244 275 295 305 311 316 320 322 323 325 328 331 333 335 338 340 344 348 351 353 354 354 355 356 357 357 357 357 357 358 359 1 2 3 3 3 2 0 358 357 357 359 2 4 6 9 13 14 14 12 11 11 11 12 14 17 21 26 31 37 41 43 44 40 32 28 29 31 34 35 35 37 37 38 39 39
200 192 188 188 190 192 194 198 208 224 248 275 292 301 308 313 317 318 320 323 326 328 331 333 336 340 344 348 351 352 353 354 356 357 357 357 357 357 358 359 1 3 5 6 6 5 4 2 360 358 356 358 2 5 8 12 14 16 15 13 12 12 13 15 18 21 26 30 36 40 44 46 45 40 34 32 32 33 35 35 36 37 39 40 41 41
192 188 187 187 188 190 193 199 211 229 255 276 289 297 304 309 312 316 320 322 324 326 328 331 335 340 344 347 350 351 352 354 356 358 358 358 358 358 359 360 2 4 6 7 7 7 5 3 0 358 358 1 4 8 10 13 16 17 17 15 14 15 16 19 23 26 31 35 39 43 46 47 45 40 35 34 34 34 35 36 37 39 41 42 43 44
188 186 186 188 190 191 196 204 216 236 259 275 286 294 299 304 309 314 318 321 322 324 326 330 335 340 344 346 348 350 352 354 356 358 359 359 359 359 0 2 4 6 7 8 8 7 6 4 2 1 4 8 12 13 13 15 17 19 20 19 18 18 20 23 27 31 35 39 42 45 46 47 46 42 37 36 35 36 36 38 40 43 44 44 46 46
Height
3048 3049 3049 3049 3049 3049 3049 3049 3050 3050 3050 3050 3050 3049 3049 3048 3048 3047 3047 3046 3045 3044 3043 3043 3042 3040 3039 3038 3037 3036 3034 3033 3031 3029 3027 3025 3023 3022 3020 3018 3016 3014 3013 3010 3008 3006 3004 3003 3001 2999 2997 2995 2993 2991 2988 2986 2984 2982 2979 2978 2975 2973 2971 2969 2967 2964 2962 2959 2957 2954 2952 2949 2947 2945 2943 2940 2938 2936 2934 2933 2931 2929 2927 2925 2923 2922
3047 3047 3048 3048 3048 3048 3048 3048 3048 3048 3049 3049 3049 3048 3047 3047 3046 3045 3045 3044 3043 3043 3042 3040 3039 3038 3037 3036 3035 3033 3032 3030 3028 3027 3025 3023 3021 3019 3018 3016 3014 3012 3010 3008 3005 3003 3001 3000 2998 2996 2994 2992 2989 2987 2985 2983 2981 2978 2976 2974 2972 2970 2968 2966 2963 2961 2958 2956 2953 2951 2948 2946 2944 2942 2940 2938 2936 2934 2932 2930 2928 2926 2924 2923 2921 2919
3045 3046 3046 3046 3046 3046 3046 3047 3047 3047 3047 3047 3047 3047 3046 3045 3045 3044 3043 3042 3041 3040 3039 3038 3037 3036 3035 3033 3032 3031 3029 3028 3026 3024 3022 3020 3018 3017 3015 3013 3011 3009 3007 3004 3002 3000 2998 2997 2995 2993 2990 2988 2986 2984 2982 2979 2977 2975 2973 2971 2969 2967 2964 2962 2960 2958 2955 2953 2950 2948 2946 2943 2941 2939 2937 2935 2933 2931 2929 2927 2925 2923 2922 2920 2918 2917
3044 3044 3044 3045 3045 3045 3045 3045 3045 3045 3045 3045 3045 3045 3044 3044 3043 3043 3042 3040 3039 3038 3037 3036 3035 3033 3033 3031 3030 3028 3027 3025 3023 3021 3019 3018 3016 3014 3012 3010 3008 3006 3003 3001 2999 2997 2995 2993 2991 2989 2987 2984 2982 2980 2978 2976 2974 2972 2970 2968 2966 2963 2961 2959 2957 2954 2952 2950 2947 2945 2943 2941 2938 2937 2934 2933 2930 2928 2927 2925 2923 2921 2919 2918 2916 2914
3043 3043 3043 3043 3043 3044 3044 3044 3044 3044 3043 3043 3043 3043 3043 3042 3042 3041 3040 3039 3038 3037 3035 3034 3033 3031 3030 3029 3027 3026 3024 3022 3021 3019 3017 3015 3013 3011 3009 3007 3005 3003 3000 2998 2996 2994 2992 2990 2988 2985 2983 2981 2979 2977 2975 2973 2971 2969 2967 2964 2962 2960 2958 2956 2953 2951 2949 2947 2944 2942 2940 2938 2936 2934 2932 2930 2928 2926 2924 2922 2920 2918 2917 2915 2913 2912
3042 3042 3042 3042 3042 3043 3043 3043 3043 3042 3042 3042 3042 3041 3041 3040 3039 3039 3038 3037 3036 3035 3033 3032 3031 3029 3028 3026 3025 3023 3022 3020 3018 3016 3014 3012 3010 3008 3006 3004 3002 2999 2997 2995 2993 2990 2988 2986 2984 2982 2980 2978 2976 2974 2972 2970 2968 2965 2963 2961 2959 2957 2955 2953 2950 2948 2946 2944 2942 2939 2937 2935 2933 2931 2929 2927 2925 2923 2922 2920 2918 2916 2914 2912 2911 2909
3040 3040 3040 3040 3041 3041 3041 3041 3041 3040 3040 3040 3039 3039 3039 3038 3038 3037 3036 3035 3034 3033 3031 3030 3028 3027 3025 3023 3022 3021 3019 3017 3015 3013 3011 3009 3007 3005 3003 3001 2999 2996 2994 2991 2989 2987 2984 2982 2980 2978 2976 2974 2973 2970 2968 2966 2964 2962 2960 2958 2956 2954 2952 2950 2948 2945 2943 2941 2939 2937 2934 2933 2930 2928 2926 2924 2922 2920 2919 2917 2915 2913 2912 2910 2908 2907
3039 3039 3039 3039 3039 3039 3039 3039 3039 3038 3038 3038 3038 3037 3037 3036 3035 3034 3033 3032 3031 3030 3028 3027 3025 3024 3023 3021 3019 3018 3016 3014 3013 3010 3008 3006 3004 3002 3000 2998 2995 2993 2990 2988 2985 2983 2981 2979 2977 2975 2973 2971 2969 2967 2965 2963 2961 2959 2957 2955 2953 2951 2948 2946 2944 2942 2940 2938 2936 2933 2932 2929 2928 2926 2923 2922 2920 2918 2916 2914 2913 2911 2909 2907 2906 2904
3038 3038 3038 3038 3038 3038 3038 3038 3037 3037 3037 3036 3036 3035 3035 3034 3033 3032 3031 3030 3029 3028 3026 3025 3023 3022 3020 3019 3018 3016 3013 3012 3010 3008 3005 3003 3001 2999 2997 2995 2992 2990 2987 2985 2983 2981 2978 2976 2974 2972 2970 2968 2966 2964 2962 2959 2957 2955 2953 2951 2949 2947 2945 2943 2941 2939 2937 2935 2933 2931 2929 2927 2925 2923 2921 2919 2917 2915 2913 2912 2910 2908 2906 2905 2903 2901
3036 3036 3036 3036 3036 3036 3036 3036 3035 3035 3035 3034 3034 3033 3033 3032 3031 3030 3029 3028 3027 3026 3024 3023 3022 3020 3019 3017 3015 3013 3011 3009 3007 3004 3002 3000 2998 2996 2993 2992 2989 2987 2985 2983 2980 2978 2976 2974 2972 2969 2967 2965 2963 2961 2958 2956 2954 2952 2950 2948 2946 2944 2942 2940 2938 2936 2934 2932 2930 2928 2926 2924 2922 2920 2918 2916 2914 2913 2911 2909 2907 2905 2903 2902 2900 2899
3034 3034 3034 3034 3034 3034 3034 3034 3033 3033 3033 3033 3032 3031 3030 3029 3029 3028 3027 3026 3025 3024 3023 3021 3020 3019 3017 3015 3013 3011 3009 3006 3003 3001 2999 2997 2995 2993 2991 2989 2987 2984 2982 2980 2978 2976 2974 2971 2969 2967 2964 2962 2960 2958 2956 2953 2952 2949 2948 2946 2944 2942 2940 2938 2936 2933 2931 2929 2927 2925 2923 2921 2919 2917 2915 2913 2911 2909 2908 2906 2904 2902 2901 2899 2898 2896
3032 3033 3033 3033 3033 3033 3033 3032 3032 3031 3031 3030 3030 3029 3028 3027 3026 3025 3024 3024 3023 3022 3020 3019 3017 3016 3014 3012 3010 3008 3006 3003 3001 2998 2996 2994 2992 2990 2988 2986 2984 2982 2980 2978 2976 2973 2971 2968 2966 2964 2962 2959 2957 2955 2953 2951 2949 2947 2945 2943 2941 2939 2937 2935 2933 2931 2929 2927 2925 2923 2921 2918 2917 2914 2912 2910 2908 2907 2905 2903 2901 2899 2898 2896 2894 2893
3031 3031 3031 3031 3031 3031 3031 3030 3030 3029 3029 3028 3028 3027 3026 3025 3024 3023 3022 3021 3020 3019 3017 3016 3014 3012 3011 3009 3007 3005 3003 3001 2998 2996 2994 2991 2990 2988 2986 2984 2982 2980 2978 2976 2973 2971 2969 2966 2963 2961 2959 2957 2955 2953 2950 2948 2947 2945 2943 2941 2938 2937 2934 2932 2930 2928 2926 2924 2922 2920 2918 2916 2913 2911 2909 2908 2905 2903 2902 2900 2898 2896 2895 2893 2892 2890
3029 3029 3029 3029 3029 3029 3029 3029 3028 3028 3027 3026 3026 3025 3024 3023 3022 3021 3020 3018 3017 3016 3015 3013 3011 3009 3007 3006 3004 3002 3000 2998 2996 2993 2991 2989 2988 2986 2984 2982 2980 2978 2977 2974 2971 2968 2966 2964 2961 2959 2957 2955 2953 2950 2948 2946 2944 2942 2940 2938 2936 2934 2932 2929 2927 2925 2923 2921 2919 2917 2915 2913 2910 2908 2906 2904 2903 2901 2899 2897 2895 2893 2892 2890 2889 2888
3027 3028 3028 3028 3028 3028 3027 3027 3026 3026 3025 3024 3023 3023 3022 3021 3020 3019 3018 3016 3015 3013 3012 3010 3008 3006 3004 3003 3001 2999 2997 2995 2993 2991 2989 2987 2985 2984 2983 2980 2978 2976 2974 2972 2969 2966 2963 2961 2959 2957 2954 2952 2950 2948 2946 2944 2942 2940 2938 2935 2933 2931 2929 2927 2924 2922 2920 2918 2916 2914 2912 2910 2908 2906 2903 2902 2900 2898 2896 2894 2893 2891 2889 2888 2886 2885
3026 3026 3026 3026 3026 3026 3025 3024 3024 3023 3023 3022 3021 3021 3020 3019 3018 3017 3015 3014 3012 3010 3009 3007 3005 3003 3001 3000 2999 2997 2995 2993 2991 2989 2988 2985 2983 2982 2981 2978 2976 2973 2972 2969 2967 2964 2961 2959 2957 2955 2953 2950 2948 2946 2943 2941 2939 2937 2935 2933 2930 2928 2926 2924 2922 2920 2918 2915 2913 2911 2909 2907 2905 2903 2901 2899 2897 2895 2893 2892 2890 2888 2887 2885 2884 2883
3024 3024 3024 3024 3024 3023 3023 3022 3022 3021 3021 3020 3019 3018 3018 3016 3015 3014 3013 3011 3009 3008 3006 3004 3003 3001 2999 2997 2996 2994 2993 2990 2988 2987 2985 2983 2981 2979 2978 2976 2973 2971 2969 2967 2964 2962 2959 2957 2955 2953 2950 2948 2946 2943 2941 2939 2937 2934 2932 2930 2928 2925 2923 2921 2919 2917 2915 2913 2911 2908 2907 2904 2903 2900 2898 2897 2895 2893 2891 2889 2888 2886 2885 2883 2882 2881
3023 3023 3022 3022 3022 3021 3021 3020 3020 3019 3018 3018 3017 3016 3015 3014 3013 3011 3009 3008 3007 3005 3003 3002 3000 2999 2997 2995 2993 2991 2990 2988 2986 2984 2983 2981 2979 2977 2976 2973 2971 2969 2967 2964 2962 2960 2958 2955 2953 2951 2948 2946 2943 2941 2939 2936 2934 2932 2929 2927 2925 2923 2921 2919 2917 2915 2913 2910 2908 2906 2904 2902 2900 2898 2896 2894 2893 2891 2889 2888 2886 2884 2883 2882 2880 2879
3021 3021 3020 3020 3019 3019 3018 3018 3018 3017 3016 3016 3015 3014 3012 3011 3010 3008 3007 3005 3004 3002 3001 2999 2998 2996 2995 2993 2990 2988 2987 2986 2984 2983 2981 2979 2977 2975 2973 2971 2969 2967 2965 2963 2960 2958 2955 2953 2951 2948 2946 2943 2941 2939 2936 2934 2932 2929 2927 2925 2923 2921 2919 2917 2915 2913 2910 2908 2906 2904 2902 2900 2898 2896 2894 2892 2891 2889 2888 2886 2884 2883 2882 2880 2879 2878
3019 3019 3018 3018 3017 3017 3016 3016 3015 3015 3014 3013 3012 3011 3010 3008 3007 3006 3004 3003 3001 3000 2998 2997 2995 2993 2992 2990 2988 2986 2985 2984 2982 2980 2979 2977 2975 2973 2971 2969 2967 2965 2963 2960 2958 2956 2953 2951 2948 2946 2943 2941 2939 2937 2934 2932 2930 2928 2925 2923 2921 2919 2917 2915 2913 2910 2908 2906 2904 2902 2900 2898 2896 2894 2893 2891 2889 2888 2886 2884 2883 2881 2880 2879 2878 2876
3017 3016 3016 3015 3015 3014 3014 3013 3013 3012 3012 3010 3009 3008 3007 3006 3005 3003 3002 3001 2999 2997 2996 2994 2993 2992 2990 2988 2986 2984 2983 2982 2980 2978 2977 2975 2973 2971 2970 2968 2965 2963 2961 2958 2956 2954 2952 2949 2947 2944 2941 2939 2937 2935 2933 2930 2928 2926 2923 2921 2919 2917 2915 2913 2910 2908 2906 2904 2902 2900 2898 2896 2894 2893 2891 2889 2888 2886 2885 2883 2882 2880 2879 2878 2876 2875
3014 3014 3013 3013 3013 3012 3012 3011 3011 3010 3009 3008 3007 3006 3005 3004 3003 3002 3000 2998 2997 2995 2994 2993 2991 2990 2988 2986 2984 2982 2981 2979 2978 2976 2975 2973 2971 2969 2968 2966 2964 2962 2959 2957 2954 2952 2949 2947 2945 2942 2939 2937 2935 2933 2931 2928 2926 2924 2921 2919 2917 2915 2913 2910 2908 2906 2904 2902 2900 2898 2897 2895 2893 2891 2889 2888 2886 2885 2883 2882 2880 2879 2878 2876 2875 2874
3012 3012 3011 3011 3011 3010 3010 3009 3008 3008 3007 3006 3005 3003 3003 3002 3001 2999 2998 2996 2995 2993 2992 2990 2989 2988 2986 2984 2983 2980 2979 2977 2976 2974 2973 2972 2970 2968 2966 2964 2962 2960 2958 2955 2953 2950 2947 2945 2943 2940 2938 2935 2933 2931 2929 2926 2924 2922 2919 2917 2915 2913 2910 2908 2906 2904 2903 2901 2899 2897 2895 2893 2892 2890 2888 2887 2885 2883 2882 2881 2879 2878 2877 2875 2874 2873
3010 3009 3009 3009 3008 3008 3007 3007 3006 3005 3004 3003 3003 3002 3001 2999 2998 2997 2995 2994 2993 2991 2989 2988 2987 2985 2984 2983 2981 2979 2977 2976 2974 2973 2971 2970 2968 2966 2964 2963 2960 2958 2955 2953 2951 2948 2945 2943 2940 2938 2936 2934 2931 2929 2927 2924 2922 2919 2917 2915 2913 2910 2908 2906 2904 2903 2901 2899 2898 2896 2894 2892 2891 2889 2887 2886 2884 2883 2881 2880 2878 2877 2876 2875 2874 2873
3008 3007 3007 3006 3006 3006 3005 3004 3004 3003 3002 3001 3000 2999 2998 2997 2996 2994 2993 2992 2990 2988 2987 2986 2985 2983 2982 2981 2979 2978 2976 2974 2973 2971 2969 2968 2966 2964 2963 2961 2959 2956 2953 2951 2948 2946 2943 2941 2938 2936 2934 2932 2929 2927 2924 2922 2920 2917 2915 2913 2911 2908 2907 2905 2903 2902 2900 2898 2896 2895 2893 2892 2890 2888 2886 2885 2883 2882 2880 2879 2878 2876 2875 2874 2873 2873
3005 3005 3004 3004 3004 3003 3003 3002 3001 3001 3000 2999 2998 2997 2996 2994 2993 2992 2991 2989 2988 2987 2985 2984 2983 2982 2980 2979 2978 2976 2974 2973 2971 2969 2968 2966 2965 2963 2961 2959 2957 2954 2951 2948 2946 2944 2942 2938 2936 2934 2932 2930 2927 2925 2922 2919 2917 2915 2913 2911 2909 2907 2905 2904 2902 2900 2899 2897 2895 2894 2892 2891 2889 2887 2885 2884 2882 2881 2879 2878 2877 2876 2875 2874 2873 2872
3003 3003 3002 3002 3002 3001 3000 3000 2999 2998 2998 2997 2996 2995 2993 2992 2991 2990 2988 2987 2986 2985 2984 2983 2981 2980 2978 2978 2976 2975 2973 2971 2969 2968 2967 2965 2963 2961 2958 2956 2954 2952 2949 2946 2944 2942 2940 2937 2934 2932 2929 2927 2925 2923 2920 2918 2915 2913 2911 2910 2908 2906 2904 2903 2901 2899 2898 2896 2895 2893 2892 2890 2888 2886 2885 2883 2882 2880 2879 2878 2877 2876 2875 2874 2873 2872
3001 3001 3000 3000 2999 2999 2998 2998 2997 2996 2996 2995 2993 2992 2991 2990 2988 2987 2986 2985 2984 2983 2982 2981 2980 2978 2977 2976 2974 2973 2971 2970 2968 2967 2965 2963 2961 2959 2957 2954 2952 2950 2947 2944 2942 2939 2938 2935 2933 2929 2927 2925 2923 2921 2918 2916 2914 2912 2910 2909 2907 2905 2903 2902 2900 2898 2897 2896 2894 2893 2891 2889 2888 2886 2884 2883 2881 2880 2879 2878 2877 2875 2874 2873 2873 2872
2999 2998 2998 2998 2997 2997 2996 2996 2995 2994 2993 2992 2991 2990 2988 2987 2986 2985 2984 2983 2983 2982 2981 2979 2978 2977 2976 2974 2973 2972 2970 2969 2967 2965 2963 2961 2959 2957 2955 2952 2950 2948 2946 2943 2939 2936 2934 2933 2932 2929 2925 2923 2921 2919 2917 2915 2913 2911 2910 2908 2906 2905 2903 2901 2899 2898 2897 2895 2893 2892 2890 2888 2887 2885 2884 2882 2881 2880 2879 2878 2877 2875 2874 2873 2873 2872
2997 2997 2996 2996 2995 2995 2994 2993 2993 2992 2991 2990 2989 2987 2986 2985 2984 2983 2983 2982 2981 2980 2979 2978 2977 2976 2974 2973 2971 2970 2969 2968 2966 2964 2961 2959 2957 2955 2953 2950 2948 2946 2944 2942 2938 2935 2932 2930 2929 2928 2926 2923 2920 2918 2916 2914 2913 2911 2909 2907 2905 2904 2902 2901 2899 2898 2896 2895 2893 2892 2890 2888 2887 2885 2883 2882 2881 2880 2878 2878 2877 2875 2874 2873 2873 2872
2995 2994 2994 2994 2993 2993 2992 2991 2991 2989 2988 2988 2986 2985 2984 2983 2982 2982 2981 2980 2979 2978 2977 2976 2975 2974 2973 2971 2970 2969 2967 2966 2964 2962 2960 2958 2955 2953 2951 2948 2946 2943 2942 2940 2938 2935 2931 2928 2926 2925 2924 2922 2920 2917 2915 2913 2912 2910 2908 2906 2905 2903 2902 2900 2898 2897 2896 2894 2893 2891 2890 2888 2886 2885 2883 2882 2881 2880 2879 2878 2877 2876 2875 2874 2873 2872
2993 2992 2992 2992 2991 2990 2990 2989 2988 2987 2986 2985 2984 2983 2982 2981 2981 2980 2979 2978 2978 2977 2976 2975 2973 2972 2971 2970 2969 2968 2966 2964 2962 2960 2958 2956 2954 2952 2950 2947 2944 2941 2939 2937 2936 2934 2932 2928 2925 2923 2922 2921 2919 2917 2914 2913 2911 2909 2908 2906 2904 2903 2901 2900 2898 2897 2895 2894 2893 2891 2889 2888 2886 2885 2883 2883 2881 2880 2879 2878 2877 2876 2875 2874 2873 2873
2990 2990 2990 2989 2989 2988 2987 2987 2986 2985 2984 2983 2982 2981 2980 2980 2979 2978 2978 2977 2976 2975 2974 2973 2972 2971 2970 2969 2968 2966 2964 2962 2960 2958 2957 2954 2952 2950 2948 2945 2942 2939 2937 2935 2933 2932 2930 2928 2926 2923 2921 2920 2919 2917 2914 2912 2910 2908 2907 2905 2904 2903 2901 2900 2898 2897 2895 2894 2893 2891 2889 2888 2886 2885 2884 2883 2882 2880 2879 2878 2877 2876 2875 2875 2874 2873
2988 2988 2988 2987 2986 2986 2985 2984 2983 2982 2981 2980 2980 2979 2979 2978 2978 2977 2976 2975 2975 2974 2973 2972 2971 2969 2968 2967 2966 2964 2963 2961 2959 2957 2955 2953 2951 2948 2946 2943 2941 2938 2936 2933 2932 2930 2928 2927 2925 2923 2921 2918 2917 2916 2914 2912 2909 2907 2906 2905 2904 2902 2901 2899 2898 2896 2895 2894 2892 2891 2889 2888 2887 2885 2884 2883 2882 2881 2880 2878 2878 2877 2876 2875 2874 2873
2986 2986 2985 2985 2984 2983 2983 2982 2981 2980 2979 2978 2978 2978 2978 2977 2976 2976 2975 2974 2973 2972 2971 2970 2969 2968 2967 2966 2964 2963 2961 2959 2958 2956 2953 2952 2949 2947 2944 2942 2939 2937 2935 2933 2931 2930 2928 2926 2925 2923 2921 2918 2916 2914 2913 2911 2909 2907 2906 2904 2903 2902 2901 2899 2898 2896 2895 2893 2892 2891 2889 2888 2887 2886 2884 2883 2882 2881 2880 2879 2878 2877 2877 2876 2875 2874
2984 2983 2983 2983 2982 2981 2980 2979 2978 2978 2977 2977 2977 2977 2976 2975 2975 2974 2973 2973 2972 2971 2970 2969 2968 2967 2966 2964 2963 2961 2959 2958 2956 2954 2952 2950 2948 2945 2943 2940 2938 2936 2934 2932 2930 2929 2927 2926 2924 2923 2921 2918 2915 2913 2911 2909 2908 2907 2906 2904 2903 2902 2900 2899 2898 2896 2895 2893 2892 2891 2890 2888 2887 2886 2884 2883 2883 2882 2881 2880 2879 2878 2877 2876 2875 2874
2982 2981 2981 2980 2979 2978 2978 2977 2976 2976 2976 2976 2976 2975 2975 2974 2973 2973 2972 2971 2971 2970 2969 2968 2967 2966 2964 2963 2961 2959 2958 2956 2954 2953 2951 2948 2946 2944 2942 2939 2938 2936 2934 2932 2930 2928 2926 2924 2923 2921 2920 2918 2916 2913 2911 2909 2907 2906 2905 2904 2903 2901 2900 2898 2897 2896 2895 2893 2892 2891 2890 2888 2887 2886 2885 2884 2883 2882 2881 2880 2879 2879 2878 2877 2876 2875
2980 2979 2978 2978 2977 2976 2975 2974 2974 2975 2975 2975 2974 2974 2973 2973 2972 2972 2971 2970 2970 2969 2968 2967 2966 2964 2963 2961 2960 2958 2957 2955 2953 2951 2949 2947 2945 2943 2941 2938 2937 2935 2933 2931 2929 2927 2925 2924 2922 2920 2918 2917 2915 2913 2911 2909 2908 2906 2905 2904 2903 2902 2900 2898 2897 2896 2894 2893 2892 2891 2890 2888 2887 2886 2885 2884 2883 2882 2882 2881 2880 2879 2878 2878 2877 2876
2978 2977 2976 2975 2974 2973 2973 2973 2973 2974 2974 2974 2973 2973 2972 2972 2971 2971 2970 2969 2968 2968 2967 2965 2964 2963 2961 2960 2958 2957 2955 2953 2952 2950 2948 2946 2944 2942 2940 2938 2936 2934 2932 2930 2928 2926 2924 2923 2922 2920 2918 2916 2914 2913 2911 2909 2908 2906 2905 2904 2903 2902 2900 2899 2897 2896 2894 2893 2892 2891 2890 2888 2888 2887 2885 2885 2884 2883 2883 2882 2881 2880 2879 2878 2878 2877
2976 2975 2973 2973 2972 2971 2972 2972 2973 2973 2973 2973 2972 2972 2971 2971 2970 2969 2969 2968 2968 2966 2965 2964 2963 2961 2960 2959 2957 2955 2954 2952 2951 2949 2947 2945 2943 2941 2939 2938 2935 2933 2931 2929 2927 2926 2924 2922 2920 2919 2918 2916 2914 2913 2911 2909 2908 2906 2905 2904 2903 2901 2900 2898 2897 2895 2894 2893 2892 2891 2890 2889 2888 2887 2886 2885 2884 2884 2883 2883 2882 2881 2880 2879 2878 2878
2973 2972 2971 2970 2970 2970 2971 2971 2972 2972 2972 2971 2971 2970 2970 2970 2969 2968 2968 2967 2966 2965 2964 2963 2961 2960 2959 2958 2956 2954 2953 2951 2949 2948 2946 2944 2942 2940 2939 2937 2935 2933 2931 2928 2927 2925 2923 2921 2920 2918 2917 2915 2914 2913 2911 2909 2908 2907 2905 2904 2903 2901 2900 2898 2897 2895 2894 2893 2891 2891 2890 2889 2888 2887 2887 2886 2885 2884 2884 2883 2882 2881 2881 2880 2879 2878
2970 2969 2969 2968 2968 2969 2970 2970 2971 2971 2970 2970 2970 2969 2969 2968 2968 2968 2967 2966 2965 2964 2963 2962 2960 2959 2958 2956 2955 2953 2952 2950 2948 2946 2944 2943 2941 2940 2938 2936 2934 2932 2930 2928 2926 2924 2923 2921 2920 2918 2916 2915 2913 2912 2911 2909 2908 2907 2906 2904 2903 2902 2900 2898 2897 2895 2894 2893 2891 2891 2890 2889 2888 2888 2887 2886 2886 2885 2884 2883 2883 2882 2881 2881 2880 2879
2968 2967 2967 2967 2968 2968 2969 2969 2970 2970 2969 2969 2969 2968 2968 2968 2967 2966 2966 2965 2964 2963 2962 2961 2960 2958 2957 2955 2954 2953 2951 2949 2947 2945 2944 2942 2941 2939 2938 2936 2934 2932 2930 2928 2925 2923 2922 2920 2919 2918 2917 2915 2913 2912 2911 2910 2908 2907 2906 2904 2903 2902 2900 2898 2896 2895 2894 2893 2892 2891 2890 2889 2889 2888 2888 2887 2886 2886 2885 2884 2884 2883 2882 2881 2880 2879
2965 2965 2965 2966 2967 2968 2968 2968 2968 2968 2968 2968 2968 2968 2967 2967 2966 2965 2964 2964 2963 2962 2961 2960 2959 2958 2956 2955 2953 2952 2950 2948 2947 2945 2943 2942 2941 2939 2937 2935 2933 2932 2930 2928 2925 2923 2921 2919 2918 2918 2917 2915 2914 2913 2911 2910 2909 2907 2906 2904 2903 2902 2900 2898 2897 2895 2894 2893 2892 2891 2890 2890 2889 2889 2888 2888 2887 2887 2886 2885 2884 2884 2883 2882 2881 2880
2963 2964 2964 2965 2966 2966 2967 2967 2967 2967 2967 2967 2967 2966 2966 2966 2965 2964 2963 2963 2962 2961 2960 2959 2958 2956 2955 2954 2953 2951 2949 2948 2946 2945 2943 2942 2941 2939 2937 2935 2933 2931 2929 2927 2925 2923 2921 2919 2918 2917 2916 2915 2914 2913 2912 2910 2909 2908 2906 2905 2903 2901 2900 2898 2897 2895 2894 2893 2892 2891 2891 2890 2890 2889 2889 2888 2888 2888 2887 2886 2885 2885 2884 2883 2882 2881
2963 2963 2963 2964 2965 2965 2965 2966 2966 2966 2966 2966 2966 2965 2965 2964 2964 2963 2962 2961 2960 2959 2958 2958 2956 2955 2954 2953 2951 2950 2948 2947 2946 2945 2943 2942 2940 2938 2937 2935 2933 2931 2929 2927 2924 2923 2921 2919 2918 2917 2916 2915 2914 2913 2912 2911 2909 2908 2906 2905 2903 2902 2900 2898 2897 2896 2894 2893 2893 2892 2891 2891 2891 2890 2890 2889 2889 2888 2888 2887 2886 2885 2885 2884 2883 2882
2962 2963 2963 2963 2963 2964 2964 2965 2965 2965 2965 2965 2964 2964 2964 2963 2963 2962 2961 2960 2959 2958 2957 2956 2955 2954 2953 2952 2950 2949 2948 2946 2945 2944 2942 2941 2939 2938 2936 2934 2933 2930 2928 2926 2924 2922 2920 2919 2918 2917 2916 2915 2915 2914 2913 2911 2910 2908 2906 2905 2903 2902 2900 2898 2897 2896 2895 2894 2893 2893 2892 2892 2891 2891 2891 2890 2890 2889 2889 2888 2887 2886 2885 2884 2884 2883
2961 2962 2962 2962 2963 2963 2963 2964 2964 2964 2964 2964 2963 2963 2963 2962 2962 2961 2960 2959 2958 2957 2956 2955 2954 2953 2952 2950 2949 2948 2947 2946 2944 2943 2942 2940 2938 2937 2935 2933 2932 2930 2928 2926 2924 2922 2921 2920 2918 2918 2917 2916 2915 2914 2913 2911 2910 2908 2907 2905 2903 2902 2900 2899 2898 2897 2895 2895 2894 2893 2893 2893 2892 2892 2892 2891 2891 2890 2889 2889 2888 2887 2886 2885 2885 2884
2960 2960 2961 2961 2962 2962 2963 2963 2963 2963 2963 2963 2963 2962 2962 2961 2960 2960 2959 2958 2957 2956 2955 2954 2953 2952 2951 2950 2948 2947 2946 2945 2944 2943 2941 2940 2938 2936 2935 2933 2931 2929 2927 2926 2924 2923 2921 2920 2919 2918 2917 2916 2915 2914 2913 2912 2910 2908 2907 2905 2903 2902 2901 2899 2898 2897 2896 2895 2895 2894 2894 2893 2893 2893 2893 2892 2892 2891 2890 2890 2889 2888 2887 2886 2886 2885
2959 2959 2960 2960 2961 2961 2962 2962 2962 2962 2962 2962 2961 2961 2961 2960 2959 2958 2958 2957 2956 2955 2954 2953 2952 2951 2950 2949 2948 2947 2946 2945 2944 2942 2941 2939 2938 2936 2934 2932 2930 2928 2927 2925 2924 2923 2922 2921 2920 2919 2918 2917 2916 2914 2913 2911 2910 2908 2907 2905 2904 2902 2901 2900 2899 2898 2897 2896 2896 2895 2895 2895 2894 2894 2894 2893 2893 2892 2892 2891 2890 2889 2888 2887 2887 2886
2958 2959 2959 2960 2960 2961 2961 2961 2961 2961 2961 2961 2960 2960 2959 2959 2958 2958 2957 2956 2955 2954 2953 2953 2952 2950 2949 2948 2948 2947 2946 2944 2943 2942 2941 2939 2938 2936 2934 2932 2930 2928 2927 2926 2925 2924 2923 2922 2921 2920 2919 2918 2916 2914 2913 2911 2909 2908 2907 2905 2904 2903 2902 2900 2899 2898 2898 2897 2897 2896 2896 2896 2895 2895 2895 2894 2894 2893 2893 2892 2891 2890 2889 2888 2888 2887